Greenville, ME

10:19 PM EDT on September 25, 2017 (GMT -0400)
Greenville

Weather History for KGNR - January, 2013

Change the Weather History Date:

Monday, January 7, 2013

  Actual Average (KMLT) Record (KMLT)
Temperature  
Mean Temperature 9 °F -  
Max Temperature 17 °F 22 °F 51 °F (1946)
Min Temperature 1 °F 4 °F -24 °F (1945)
Degree Days  
Heating Degree Days 56    
Moisture  
Dew Point 1 °F    
Average Humidity 77    
Maximum Humidity 92    
Minimum Humidity 61    
Precipitation  
Precipitation 0.01 in - - ()
Sea Level Pressure  
Sea Level Pressure 30.22 in    
Wind  
Wind Speed 5 mph (NNW)    
Max Wind Speed 13 mph    
Max Gust Speed 20 mph    
Averages and records for this station are not official NWS values.
T = Trace of Precipitation, MM = Missing Value Source: NWS Daily Summary

Daily Weather History Graph

Daily Weather History Graph

Search for Another Location

Airport or City:

Trip Planner

Search our weather history database for the weather conditions in past years. The results will help you decide how hot, cold, wet, or windy it might be!

Date:

Astronomy

Jan. 07, 2013 Rise Set
Actual Time 7:17 AM EST 4:12 PM EST
Civil Twilight 6:44 AM EST 4:45 PM EST
Nautical Twilight 6:06 AM EST 5:22 PM EST
Astronomical Twilight 5:31 AM EST 5:58 PM EST
Moon 2:34 AM EST (1/7) 12:23 PM EST (1/7)
Length of Visible Light 10h 01m
Length of Day
8h 54m
Waning Crescent, 23% of the Moon is Illuminated
Jan 7
Waning Crescent
Jan 11
New
Jan 18
First Quarter
Jan 26
Full
Feb 3
Last Quarter

Hourly Weather History & Observations

Time (EST) Temp. Windchill Dew Point Humidity Pressure Visibility Wind Dir Wind Speed Gust Speed Precip Events Conditions
12:56 AM 17.1 °F - 15.1 °F 92% 29.95 in - Calm Calm - N/A   Unknown
1:56 AM 14.0 °F 8.2 °F 10.9 °F 88% 29.99 in - WNW 3.5 mph - N/A   Unknown
2:56 AM 10.9 °F -0.8 °F 8.1 °F 88% 30.00 in - NW 8.1 mph - N/A   Unknown
3:56 AM 10.0 °F -2.9 °F 5.0 °F 80% 30.04 in - NNW 9.2 mph - N/A   Unknown
4:56 AM 8.1 °F -7.0 °F 3.9 °F 83% 30.07 in - NNW 11.5 mph - 0.01 in   Unknown
5:56 AM 6.1 °F -9.5 °F 1.9 °F 83% 30.12 in - NNW 11.5 mph - N/A   Unknown
6:56 AM 5.0 °F -6.9 °F 1.0 °F 84% 30.16 in - NNW 6.9 mph - N/A   Unknown
7:56 AM 3.9 °F -5.3 °F 1.0 °F 88% 30.19 in - North 4.6 mph - N/A   Unknown
8:56 AM 5.0 °F -10.8 °F -2.0 °F 73% 30.23 in - NNW 11.5 mph 19.6 mph N/A   Unknown
9:56 AM 5.0 °F -11.6 °F -4.0 °F 66% 30.27 in - NNW 12.7 mph - N/A   Unknown
10:56 AM 5.0 °F -10.0 °F -4.0 °F 66% 30.27 in - North 10.4 mph - N/A   Unknown
11:56 AM 8.1 °F -4.3 °F -0.9 °F 67% 30.27 in - NW 8.1 mph - N/A   Unknown
12:56 PM 9.0 °F -3.2 °F -0.0 °F 67% 30.27 in - NNW 8.1 mph - N/A   Unknown
1:56 PM 10.0 °F -1.9 °F -0.0 °F 64% 30.28 in - NNW 8.1 mph - N/A   Unknown
2:56 PM 10.0 °F 3.6 °F -0.0 °F 64% 30.31 in - NNW 3.5 mph - N/A   Unknown
3:56 PM 10.0 °F 3.6 °F -0.9 °F 61% 30.31 in - NNW 3.5 mph - N/A   Unknown
4:56 PM 7.0 °F 0.1 °F -0.9 °F 70% 30.33 in - North 3.5 mph - N/A   Unknown
5:56 PM 6.1 °F - -0.9 °F 73% 30.35 in - Calm Calm - N/A   Unknown
6:56 PM 1.9 °F - -2.9 °F 80% 30.34 in - Calm Calm - N/A   Unknown
7:56 PM 3.0 °F - -2.0 °F 80% 30.33 in - Calm Calm - N/A   Unknown
8:56 PM 3.9 °F - -0.9 °F 80% 30.32 in - Calm Calm - N/A   Unknown
9:56 PM 3.9 °F -5.3 °F -0.9 °F 80% 30.32 in - SE 4.6 mph - N/A   Unknown
10:56 PM 3.9 °F -5.3 °F -0.0 °F 84% 30.30 in - SSE 4.6 mph - N/A   Unknown
11:56 PM 5.0 °F -6.9 °F -0.9 °F 76% 30.26 in - SE 6.9 mph - N/A   Unknown